This is the latest recevied weather packets stored in our database for station/object AK4NG. If no packets are shown the sender has not sent any weather packets the latest 10 day(s).
| Time | Temp. | Humidity | Pressure | Rain* | Wind** | Luminosity | Snow |
|---|---|---|---|---|---|---|---|
| 1778004817 | 25.56° C | 50% | 1016.2 hPa | 0 mm | - | 989 W/m² | - |
| 1778004513 | 26.11° C | 50% | 1016.1 hPa | 0 mm | - | 993 W/m² | - |
| 1778004210 | 25.56° C | 50% | 1016.2 hPa | 0 mm | - | 999 W/m² | - |
| 1778003906 | 25.56° C | 50% | 1016.4 hPa | 0 mm | - | 995 W/m² | - |
| 1778003603 | 25° C | 52% | 1016.2 hPa | 0 mm | - | 1007 W/m² | - |
| 1778003299 | 25.56° C | 49% | 1016.1 hPa | 0 mm | - | 371 W/m² | - |
| 1778002997 | 25° C | 51% | 1016.6 hPa | 0 mm | - | 961 W/m² | - |
| 1778002692 | 24.44° C | 51% | 1016.3 hPa | 0 mm | - | 935 W/m² | - |
| 1778002389 | 24.44° C | 52% | 1016.3 hPa | 0 mm | - | 942 W/m² | - |
| 1778002086 | 25° C | 53% | 1016.1 hPa | 0 mm | - | 902 W/m² | - |
| 1778001783 | 25° C | 53% | 1016.4 hPa | 0 mm | - | 957 W/m² | - |
| 1778001478 | 24.44° C | 55% | 1016.3 hPa | 0 mm | - | 948 W/m² | - |
| 1778001175 | 24.44° C | 53% | 1016.4 hPa | 0 mm | - | 540 W/m² | - |
| 1778000872 | 24.44° C | 53% | 1016.4 hPa | 0 mm | - | 939 W/m² | - |
| 1778000570 | 24.44° C | 53% | 1016.2 hPa | 0 mm | - | 928 W/m² | - |
| 1777999966 | 24.44° C | 51% | 1016.4 hPa | 0 mm | - | 891 W/m² | - |
| 1777999662 | 23.89° C | 53% | 1016.6 hPa | 0 mm | - | 829 W/m² | - |
| 1777999359 | 23.33° C | 54% | 1016.6 hPa | 0 mm | - | 820 W/m² | - |
| 1777999057 | 23.33° C | 52% | 1016.6 hPa | 0 mm | - | 801 W/m² | - |
| 1777998756 | 23.89° C | 52% | 1016.8 hPa | 0 mm | - | 851 W/m² | - |
| 1777998452 | 23.33° C | 54% | 1016.5 hPa | 0 mm | - | 821 W/m² | - |
| 1777998149 | 23.89° C | 53% | 1016.8 hPa | 0 mm | - | 768 W/m² | - |
| 1777997846 | 23.33° C | 53% | 1016.7 hPa | 0 mm | - | 813 W/m² | - |
| 1777997544 | 23.33° C | 53% | 1016.8 hPa | 0 mm | - | 629 W/m² | - |
| 1777997241 | 23.89° C | 50% | 1016.8 hPa | 0 mm | - | 806 W/m² | - |
* Rain latest hour (hover to see other rain measurements)
** Current wind speed in m/s (hover to see current wind gust speed)